Date,TemperatureHighF,TemperatureAvgF,TemperatureLowF,DewpointHighF,DewpointAvgF,DewpointLowF,HumidityHigh,HumidityAvg,HumidityLow,PressureMaxIn,PressureMinIn,WindSpeedMaxMPH,WindSpeedAvgMPH,GustSpeedMaxMPH,PrecipitationSumIn
2013-1-1,65.8,51.3,42.0,44.3,38.2,20.1,90,65,25,30.27,30.12,15,1,15,0.00
2013-1-2,68.9,54.1,41.6,38.4,30.7,19.5,82,45,18,30.17,30.06,9,2,13,0.00
2013-1-3,74.1,51.6,36.0,44.6,36.4,20.6,85,62,15,30.20,30.09,10,1,13,0.00
2013-1-4,68.8,50.0,36.6,44.3,34.1,18.8,85,61,17,30.32,30.20,8,1,9,0.00
2013-1-5,68.0,49.6,36.1,46.1,37.0,26.4,88,66,24,30.33,30.21,9,1,9,0.00
2013-1-6,58.5,51.3,45.0,52.4,46.3,41.8,97,84,60,30.25,30.05,16,2,16,0.00
2013-1-7,65.7,51.5,39.4,47.9,42.6,34.7,96,76,33,30.14,30.01,10,1,12,0.00
2013-1-8,66.8,52.0,39.0,55.0,46.4,36.0,95,82,58,30.15,30.05,8,1,10,0.00
2013-1-9,67.5,53.6,42.4,55.1,49.3,41.0,96,87,56,30.17,30.04,8,1,9,0.00
2013-1-10,59.7,53.7,47.3,51.6,39.7,26.9,94,62,29,30.13,29.94,20,4,23,0.00
2013-1-11,57.3,49.1,37.2,33.6,27.0,22.9,70,43,28,30.22,30.09,15,4,17,0.00
2013-1-12,60.2,46.2,34.5,36.0,29.7,21.7,79,55,24,30.21,30.10,12,2,12,0.00
2013-1-13,58.2,45.4,33.2,34.7,29.4,20.0,83,57,26,30.21,30.09,11,1,11,0.03
2013-1-14,62.2,47.3,38.7,29.0,14.7,4.5,59,29,13,30.36,30.17,17,4,19,0.01
2013-1-15,62.2,46.6,32.6,37.6,27.0,16.1,77,52,19,30.50,30.36,9,1,11,0.10
2013-1-16,71.2,51.7,35.6,42.6,35.5,28.4,84,59,22,30.39,30.14,8,1,8,0.00
2013-1-17,83.8,60.3,40.6,38.9,28.3,15.2,79,39,8,30.20,30.07,19,2,19,0.00
2013-1-18,86.0,59.3,41.2,39.9,33.6,23.3,74,44,11,30.17,30.06,13,1,15,0.00
2013-1-19,78.6,59.8,42.4,39.4,32.5,23.8,75,41,14,30.21,30.09,8,1,8,0.00
2013-1-20,87.8,60.0,42.0,45.8,30.8,12.2,66,39,7,30.17,30.01,11,1,12,0.00
2013-1-21,81.8,59.5,39.9,37.4,30.6,17.0,71,41,9,30.12,30.01,9,1,12,0.00
2013-1-22,84.3,57.3,39.0,41.4,35.8,16.1,84,52,9,30.13,30.03,9,1,9,0.00
2013-1-23,76.2,62.7,50.6,54.4,40.0,31.1,86,45,25,30.17,30.03,11,1,12,0.01
2013-1-24,72.8,60.4,54.2,58.5,55.0,51.8,95,83,60,30.23,30.12,11,3,13,0.05
2013-1-25,69.7,62.5,59.1,61.8,59.2,57.0,96,89,72,30.14,29.96,15,2,15,0.02
2013-1-26,71.3,60.4,56.0,64.1,58.4,54.6,97,94,74,30.02,29.92,8,2,11,0.01
2013-1-27,62.2,56.1,48.3,56.0,50.5,42.4,97,83,63,30.06,29.99,11,2,12,0.02
2013-1-28,63.7,50.6,39.1,45.2,36.7,28.2,91,62,28,30.21,30.05,15,3,18,0.00
2013-1-29,61.4,49.7,39.2,46.3,41.1,34.8,88,74,45,30.28,30.19,11,1,12,0.00
2013-1-30,70.0,54.0,40.9,49.6,44.5,38.4,92,73,42,30.38,30.24,9,1,10,0.00
2013-1-31,79.9,58.8,42.7,49.2,43.8,39.3,90,63,25,30.27,30.10,8,1,10,0.00
2013-2-1,75.1,58.6,44.2,52.2,46.5,40.5,88,67,35,30.19,30.12,10,1,12,0.00
2013-2-2,74.9,61.9,52.8,56.1,51.0,46.3,89,70,38,30.22,30.11,8,1,8,0.00
2013-2-3,77.0,61.8,52.8,56.6,53.3,47.7,93,76,40,30.16,30.02,13,2,13,0.00
2013-2-4,64.3,55.0,47.7,57.1,52.1,46.6,98,91,75,30.14,30.01,11,1,12,0.01
2013-2-5,62.1,55.5,53.3,53.3,51.0,49.8,91,85,72,30.14,30.02,7,1,10,0.00
2013-2-6,64.9,56.6,49.0,52.1,49.8,46.1,91,79,63,30.14,30.03,12,1,13,0.00
2013-2-7,63.8,53.3,43.7,54.1,47.7,42.1,95,82,66,30.18,30.02,11,2,11,0.00
2013-2-8,56.0,50.2,42.9,49.5,43.6,40.6,93,78,63,30.04,29.92,15,3,18,0.13
2013-2-9,58.4,47.7,36.9,46.2,40.7,35.6,96,79,51,30.14,29.97,11,1,11,0.14
2013-2-10,63.2,49.7,40.5,49.2,43.0,38.0,92,79,58,30.15,30.05,9,1,10,0.00
2013-2-11,64.0,50.8,39.7,47.5,41.7,35.4,94,73,37,30.27,30.09,12,1,14,0.00
2013-2-12,64.3,51.2,39.9,48.9,40.3,32.3,87,68,36,30.39,30.27,10,2,12,0.00
2013-2-13,65.7,52.5,39.3,48.3,42.0,35.3,87,70,40,30.30,30.16,9,1,10,0.00
2013-2-14,73.8,55.2,41.0,54.6,45.1,37.8,90,71,37,30.25,30.08,9,1,11,0.00
2013-2-15,88.0,66.2,46.1,45.4,33.9,20.3,86,39,10,30.21,30.12,16,3,16,0.00
2013-2-16,84.1,64.2,44.9,36.7,28.9,17.4,64,32,10,30.17,29.99,12,1,12,0.00
2013-2-17,69.2,55.7,45.0,53.9,47.8,35.8,96,76,49,30.06,29.95,10,2,11,0.00
2013-2-18,63.5,56.3,53.4,49.6,47.7,44.3,83,73,59,30.10,29.99,9,3,11,0.00
2013-2-19,57.7,53.2,46.8,48.7,44.0,41.2,93,71,59,30.02,29.74,13,4,17,0.09
2013-2-20,60.6,51.5,43.6,45.5,36.3,29.5,82,57,38,30.02,29.74,17,4,18,0.22
2013-2-21,66.7,52.4,42.6,46.7,41.8,36.9,86,69,37,30.12,30.00,10,2,11,0.00
2013-2-22,66.1,52.1,39.8,49.9,44.3,36.4,89,76,52,30.24,30.12,10,2,12,0.00
2013-2-23,63.2,52.3,41.0,51.0,44.6,37.1,91,77,46,30.19,29.96,12,2,15,0.00
2013-2-24,75.5,57.5,42.4,45.8,29.9,13.3,94,46,11,30.23,30.02,16,3,18,0.00
2013-2-25,66.7,53.5,39.5,49.2,35.6,25.8,87,54,23,30.26,30.10,12,2,15,0.00
2013-2-26,71.9,54.3,40.1,52.3,43.8,35.3,88,70,30,30.13,30.01,13,1,14,0.00
2013-2-27,81.0,60.4,44.5,46.4,33.0,16.9,84,45,10,30.28,30.13,12,2,12,0.00
2013-2-28,81.1,61.1,42.7,43.0,31.5,17.7,77,42,10,30.34,30.24,12,1,13,0.00
2013-3-1,91.4,68.1,47.0,38.7,32.5,21.8,70,34,9,30.32,30.14,18,2,18,0.00
2013-3-2,82.2,66.7,50.9,49.6,36.6,28.6,76,37,15,30.22,30.08,10,2,13,0.00
2013-3-3,66.8,58.7,53.5,55.8,53.3,49.7,94,83,61,30.13,30.00,11,2,12,0.00
2013-3-4,68.9,58.2,53.5,55.3,52.5,50.6,91,82,59,30.13,30.04,12,2,13,0.00
2013-3-5,67.8,56.9,51.8,55.8,51.7,48.1,93,83,63,30.15,30.06,10,2,14,0.00
2013-3-6,66.3,57.0,48.1,51.9,46.8,43.1,90,70,49,30.19,30.04,11,2,13,0.00
2013-3-7,62.9,56.7,54.0,53.4,50.5,46.9,93,80,62,30.04,29.87,12,2,12,0.00
2013-3-8,57.6,52.8,47.9,50.6,47.0,42.8,94,81,62,30.05,29.81,15,3,17,0.05
2013-3-9,64.6,54.9,46.3,49.3,47.0,41.5,94,76,49,30.25,30.04,13,2,13,0.02
2013-3-10,75.3,58.6,43.3,51.1,44.3,34.6,91,65,25,30.30,30.17,11,2,12,0.01
2013-3-11,73.5,58.1,44.8,54.6,48.0,40.1,91,72,42,30.21,30.06,11,1,12,0.02
2013-3-12,75.8,58.9,46.9,57.8,51.6,46.0,98,79,54,30.12,30.02,9,1,10,0.01
2013-3-13,77.1,60.1,48.9,58.5,53.4,47.6,97,81,51,30.14,30.03,9,2,9,0.00
2013-3-14,78.4,61.5,52.2,60.6,53.7,47.9,98,79,39,30.12,30.02,9,2,10,0.00
2013-3-15,67.6,58.2,54.0,57.7,54.4,52.3,96,88,69,30.07,29.96,9,2,11,0.00
2013-3-16,66.1,56.8,52.5,55.8,52.3,50.1,96,86,69,30.01,29.92,10,2,12,0.00
2013-3-17,67.4,58.9,54.6,55.1,53.0,51.1,91,82,63,30.04,29.96,11,2,12,0.00
2013-3-18,66.0,58.9,54.2,54.7,52.4,50.6,88,79,65,30.11,30.01,9,2,9,0.00
2013-3-19,68.2,57.4,49.9,56.3,52.4,47.6,94,84,66,30.15,30.07,10,1,13,0.00
2013-3-20,70.3,59.7,51.9,58.7,54.3,49.9,94,83,62,30.12,29.98,11,2,15,0.00
2013-3-21,69.0,59.9,51.9,58.0,54.4,49.8,94,83,64,29.98,29.83,14,2,14,0.00
2013-3-22,67.8,59.3,51.7,57.4,53.8,49.8,95,83,64,29.94,29.84,13,2,14,0.00
2013-3-23,70.9,60.4,51.5,56.8,53.4,48.4,93,79,56,30.04,29.94,11,2,13,0.00
2013-3-24,74.8,62.5,56.1,59.2,54.4,50.0,93,77,51,30.05,29.90,12,2,14,0.00
2013-3-25,72.0,60.6,54.6,58.3,55.6,52.9,97,85,55,30.01,29.91,12,2,12,0.00
2013-3-26,68.4,60.9,56.4,56.6,54.5,52.8,94,80,63,30.00,29.92,11,2,11,0.00
2013-3-27,69.3,60.2,54.9,55.5,53.5,51.6,90,79,59,30.07,29.96,12,2,12,0.00
2013-3-28,74.3,62.2,55.8,58.8,54.9,53.1,91,78,56,30.10,30.02,12,2,13,0.00
2013-3-29,68.8,60.6,55.9,59.1,55.8,53.1,93,85,70,30.14,30.06,14,2,15,0.00
2013-3-30,68.2,61.2,57.0,57.8,54.9,49.5,92,81,58,30.16,30.07,13,2,14,0.00
2013-3-31,68.5,61.6,56.9,59.0,55.8,53.3,90,82,70,30.16,30.07,14,3,16,0.00
2013-4-1,68.3,60.6,56.2,55.6,53.2,50.1,89,77,57,30.20,30.09,14,3,16,0.00
2013-4-2,69.8,61.5,55.5,56.8,54.3,51.8,89,78,63,30.12,30.01,11,2,12,0.00
2013-4-3,74.3,62.4,55.0,60.8,56.3,53.2,94,82,61,30.11,30.00,12,2,13,0.00
2013-4-4,71.8,63.3,58.0,59.1,56.3,54.6,90,79,59,30.13,30.02,12,2,13,0.00
2013-4-5,68.1,61.6,58.4,58.9,56.7,55.1,93,85,70,30.12,30.02,14,3,16,0.00
2013-4-6,69.7,62.5,58.5,57.8,56.0,54.6,91,80,65,30.11,29.98,13,2,14,0.00
2013-4-7,70.3,62.4,56.6,58.9,56.1,53.3,92,81,64,30.00,29.83,13,3,14,0.00
2013-4-8,68.5,61.7,56.8,55.7,48.0,38.6,91,64,39,29.85,29.68,24,6,24,0.00
2013-4-9,76.9,62.9,50.2,50.8,41.5,25.9,82,51,18,30.03,29.83,15,3,16,0.00
2013-4-10,80.5,64.1,48.7,52.5,45.2,23.6,86,57,14,30.12,29.99,15,2,15,0.00
2013-4-11,77.4,61.5,51.8,57.0,51.4,44.9,84,71,35,30.03,29.81,14,2,16,0.00
2013-4-12,69.9,61.9,56.8,57.1,54.0,52.2,91,76,62,29.93,29.79,12,2,14,0.00
2013-4-13,62.3,58.3,55.8,56.8,54.6,51.3,95,88,80,29.94,29.87,9,2,10,0.00
2013-4-14,65.4,59.0,55.1,55.1,52.5,50.5,87,80,68,29.91,29.84,11,3,12,0.00
2013-4-15,65.8,59.3,56.0,55.5,52.6,49.9,92,79,65,29.93,29.86,15,3,17,0.05
2013-4-16,67.6,58.7,52.2,50.9,45.3,29.3,83,63,31,30.01,29.90,17,3,20,0.00
2013-4-17,79.3,63.9,54.7,45.1,30.9,16.5,67,31,12,30.14,30.01,16,4,17,0.00
2013-4-18,87.3,67.2,49.0,44.9,28.6,12.4,71,30,8,30.22,30.11,20,4,25,0.00
2013-4-19,87.1,67.7,48.5,53.3,34.9,15.9,76,38,8,30.18,29.98,15,2,17,0.00
2013-4-20,81.0,65.5,53.3,59.9,54.3,48.0,92,70,37,30.01,29.88,11,2,14,0.00
2013-4-21,73.8,63.1,56.8,59.7,56.7,54.5,97,81,54,30.03,29.95,10,2,14,0.00
2013-4-22,69.1,61.7,57.6,56.6,54.6,52.6,90,78,62,30.04,29.92,13,3,13,0.00
2013-4-23,74.0,62.3,57.9,57.2,53.7,51.2,84,74,56,30.00,29.88,12,2,12,0.00
2013-4-24,66.2,60.7,58.7,56.7,54.2,49.7,91,80,58,30.01,29.92,10,2,10,0.00
2013-4-25,71.2,63.9,59.2,55.5,53.5,50.6,84,70,52,30.13,29.98,12,2,13,0.00
2013-4-26,75.3,64.3,53.1,57.5,53.5,49.6,89,70,46,30.17,30.10,12,2,15,0.00
2013-4-27,78.6,64.3,54.5,60.8,56.4,51.6,92,77,49,30.17,30.00,11,2,13,0.00
2013-4-28,71.8,63.8,58.2,61.4,57.6,55.8,92,81,65,30.04,29.87,10,2,11,0.00
2013-4-29,68.9,61.7,58.2,60.2,56.6,54.8,94,84,71,29.93,29.80,14,2,14,0.00
2013-4-30,66.7,61.6,58.9,57.9,55.4,54.2,86,80,72,29.92,29.84,12,3,13,0.00
2013-5-1,73.3,65.5,60.3,59.4,57.1,54.9,87,75,60,30.11,29.92,11,2,14,0.00
2013-5-2,101.0,73.7,55.5,58.7,46.6,-5.9,93,53,2,30.13,29.98,16,2,20,0.00
2013-5-3,90.5,73.8,56.4,58.5,44.9,19.7,89,46,8,30.02,29.78,12,2,15,0.00
2013-5-4,73.0,64.7,59.1,59.9,57.1,52.6,93,78,58,29.87,29.76,14,4,15,0.00
2013-5-5,70.3,62.6,58.9,56.9,54.3,52.5,91,75,57,29.97,29.84,15,4,15,0.01
2013-5-6,70.3,62.9,58.2,60.9,57.2,52.8,97,83,60,30.03,29.92,13,3,16,0.03
2013-5-7,71.4,63.8,57.8,60.2,54.5,48.9,93,73,48,30.09,30.00,15,2,16,0.02
2013-5-8,71.3,64.4,58.5,57.9,54.2,49.1,89,71,48,30.12,30.07,15,3,18,0.02
2013-5-9,70.3,63.0,55.8,59.3,56.5,52.9,92,80,62,30.12,30.03,12,2,13,0.01
2013-5-10,79.0,66.6,57.5,62.9,59.5,55.4,95,79,54,30.11,30.01,12,2,12,0.01
2013-5-11,82.3,68.7,59.9,67.6,61.8,57.8,94,80,57,30.09,29.98,10,2,12,0.00
2013-5-12,86.6,71.9,61.7,67.5,62.4,57.6,96,75,39,30.07,29.90,11,2,11,0.00
2013-5-13,95.8,77.7,62.7,67.0,59.6,48.9,92,59,26,29.97,29.85,14,2,17,0.00
2013-5-14,80.6,68.4,60.5,61.5,57.9,50.9,88,71,41,30.01,29.90,16,2,16,0.00
2013-5-15,71.6,64.7,59.4,60.5,57.5,55.5,90,78,66,30.06,29.96,10,3,11,0.00
2013-5-16,72.2,65.2,61.6,60.2,57.1,55.3,85,76,65,30.00,29.90,11,2,12,0.00
2013-5-17,71.6,65.5,61.1,61.7,58.5,55.6,90,79,66,30.02,29.92,13,3,17,0.00
2013-5-18,73.3,65.3,58.9,60.5,57.6,55.4,90,77,60,30.06,29.98,12,2,14,0.00
2013-5-19,76.5,66.3,58.7,61.9,58.8,55.3,90,78,61,30.01,29.89,11,2,13,0.00
2013-5-20,78.5,67.5,58.6,64.5,60.9,56.1,93,80,61,29.97,29.89,11,2,14,0.00
2013-5-21,78.2,67.1,63.4,66.4,61.1,59.4,90,82,64,29.95,29.84,14,2,14,0.00
2013-5-22,74.8,66.4,62.3,62.4,58.3,56.0,88,76,62,29.87,29.79,12,3,12,0.00
2013-5-23,71.2,64.8,58.9,58.9,55.7,52.3,84,73,59,29.95,29.84,12,3,16,0.00
2013-5-24,72.2,64.6,60.1,58.3,55.8,52.5,83,74,60,30.01,29.93,14,2,14,0.00
2013-5-25,74.3,64.2,56.9,58.6,55.1,52.1,85,73,54,30.05,29.98,11,2,13,0.00
2013-5-26,72.5,64.4,57.3,60.1,56.5,53.2,87,77,62,30.07,30.00,14,3,14,0.00
2013-5-27,75.3,66.0,60.1,61.4,58.4,55.2,88,77,60,30.02,29.87,13,3,17,0.00
2013-5-28,74.7,67.1,61.3,63.3,60.4,57.6,89,80,62,29.90,29.75,14,3,16,0.00
2013-5-29,77.1,68.2,61.0,65.1,61.4,58.1,92,80,62,29.83,29.72,12,2,15,0.00
2013-5-30,77.9,67.8,61.4,65.0,61.4,58.7,92,81,62,29.90,29.77,13,2,15,0.00
2013-5-31,76.8,68.1,63.0,65.6,61.4,58.8,90,80,64,29.93,29.82,11,2,12,0.00
2013-6-1,78.2,69.0,64.2,67.4,63.1,61.1,90,82,67,29.87,29.77,12,2,13,0.00
2013-6-2,71.8,66.1,63.5,63.6,60.9,57.8,89,84,73,29.85,29.78,12,2,14,0.00
2013-6-3,74.6,66.8,63.3,63.0,59.7,57.8,86,78,67,29.91,29.81,11,2,15,0.00
2013-6-4,74.2,66.2,62.5,62.2,59.1,57.7,87,79,65,29.98,29.90,13,2,15,0.00
2013-6-5,75.3,66.8,61.6,61.0,58.7,57.3,88,76,58,30.02,29.91,13,2,15,0.00
2013-6-6,72.6,65.3,60.7,63.2,59.2,57.1,89,81,70,29.97,29.88,11,2,13,0.00
2013-6-7,73.0,64.9,61.3,63.5,59.4,57.5,90,83,69,29.93,29.80,11,2,13,0.00
2013-6-8,70.3,64.3,62.0,62.7,59.6,58.3,91,85,73,29.93,29.81,10,2,13,0.00
2013-6-9,71.5,64.2,60.1,62.9,59.2,56.3,90,84,73,29.95,29.88,11,2,14,0.00
2013-6-10,75.7,67.8,59.8,61.9,59.0,56.2,89,74,58,29.97,29.90,12,2,13,0.00
2013-6-11,81.5,69.9,61.0,68.2,62.0,58.3,92,77,56,29.95,29.88,12,2,13,0.00
2013-6-12,71.9,66.0,63.9,63.7,61.0,59.2,90,84,74,30.05,29.93,10,2,11,0.00
2013-6-13,77.2,68.1,62.6,64.0,60.4,58.8,88,77,62,30.02,29.90,12,2,14,0.00
2013-6-14,73.5,65.4,61.0,62.4,59.4,56.7,91,82,67,29.94,29.86,12,2,13,0.00
2013-6-15,73.3,66.0,61.3,61.3,58.3,56.7,86,77,63,29.99,29.91,10,2,12,0.00
2013-6-16,79.4,68.1,62.0,62.3,59.6,57.8,88,75,56,30.05,29.95,12,2,13,0.00
2013-6-17,75.0,67.1,61.0,64.7,60.7,57.9,93,81,65,30.00,29.89,12,2,14,0.00
2013-6-18,74.8,66.9,60.8,64.3,61.3,58.8,94,83,67,29.94,29.84,12,2,14,0.00
2013-6-19,78.1,68.4,61.9,63.7,60.7,58.9,92,78,54,29.89,29.80,14,3,15,0.00
2013-6-20,76.0,68.2,59.7,64.2,60.6,56.6,94,78,55,29.88,29.81,11,2,12,0.00
2013-6-21,75.8,68.4,60.4,64.2,61.3,58.2,94,79,61,29.92,29.84,13,2,15,0.00
2013-6-22,74.6,68.2,61.8,63.9,61.1,58.7,91,79,64,29.93,29.82,11,2,13,0.00
2013-6-23,73.3,66.6,63.8,63.1,59.9,58.1,90,79,66,29.90,29.81,11,2,12,0.00
2013-6-24,74.8,67.9,62.6,62.6,60.7,59.3,91,79,63,29.96,29.84,11,2,11,0.00
2013-6-25,79.0,68.7,63.3,66.5,62.5,60.6,91,81,59,30.01,29.90,10,2,12,0.00
2013-6-26,81.4,71.5,63.0,67.5,63.8,60.6,94,78,57,29.99,29.89,11,2,12,0.00
2013-6-27,81.8,71.4,64.4,69.1,65.4,62.6,95,82,61,30.03,29.96,12,2,12,0.00
2013-6-28,86.9,72.8,63.8,69.9,65.6,62.6,97,80,55,30.01,29.86,13,2,14,0.00
2013-6-29,85.5,75.1,66.4,71.5,66.3,63.2,93,75,55,29.89,29.73,14,2,14,0.00
2013-6-30,84.9,73.2,67.5,71.6,67.1,64.9,95,82,59,29.82,29.71,11,2,14,0.00
2013-7-1,90.5,72.8,65.9,70.2,66.7,64.1,95,83,47,29.90,29.81,12,2,13,0.00
2013-7-2,77.7,70.2,66.0,68.8,65.9,64.2,97,87,71,30.01,29.88,11,2,14,0.00
2013-7-3,79.8,70.6,65.7,69.0,65.2,62.5,94,84,66,29.95,29.80,11,2,12,0.00
2013-7-4,77.3,69.5,64.7,66.5,63.7,61.5,94,83,68,29.85,29.76,11,2,13,0.00
2013-7-5,77.8,69.4,65.4,67.1,63.8,62.2,91,83,68,29.85,29.77,12,2,14,0.00
2013-7-6,76.4,69.9,66.0,67.1,64.2,62.5,90,83,71,29.84,29.75,12,2,12,0.00
2013-7-7,83.3,72.2,66.5,69.3,64.8,61.8,90,79,58,29.87,29.76,10,2,12,0.00
2013-7-8,88.0,73.2,63.0,70.1,62.9,57.6,91,72,39,29.93,29.85,10,2,10,0.00
2013-7-9,78.9,71.2,64.7,67.9,64.4,61.3,91,80,64,30.01,29.90,14,2,15,0.00
2013-7-10,78.4,70.6,66.4,69.3,66.2,63.8,93,86,70,29.98,29.90,10,1,11,0.00
2013-7-11,74.3,70.3,68.2,67.9,66.2,65.1,91,87,80,29.98,29.89,8,2,10,0.00
2013-7-12,81.8,72.2,64.9,70.3,65.8,61.4,93,82,55,29.94,29.84,11,2,13,0.00
2013-7-13,80.8,70.9,64.0,67.5,63.9,60.9,92,80,61,29.97,29.85,12,2,14,0.00
2013-7-14,81.0,71.3,64.4,68.7,64.6,60.8,92,81,60,29.94,29.82,12,2,13,0.00
2013-7-15,85.0,73.2,65.2,68.7,63.4,54.8,94,74,43,29.88,29.79,12,2,12,0.00
2013-7-16,84.7,71.5,60.4,65.4,59.8,53.8,91,69,39,29.99,29.86,12,2,13,0.00
2013-7-17,88.2,73.1,60.6,65.8,58.6,53.6,90,63,34,30.02,29.94,12,2,12,0.00
2013-7-18,81.0,70.4,60.9,66.2,61.9,58.2,92,75,58,30.00,29.85,13,2,13,0.00
2013-7-19,77.0,68.4,62.6,66.7,63.1,60.4,93,84,68,29.92,29.83,11,2,13,0.00
2013-7-20,72.5,67.6,65.3,66.4,63.4,61.9,90,87,80,29.90,29.81,10,2,11,0.00
2013-7-21,71.3,67.2,65.0,66.3,63.6,61.8,92,88,84,29.93,29.81,8,1,9,0.00
2013-7-22,80.6,71.4,65.1,68.0,64.8,62.7,94,81,65,29.99,29.92,13,2,15,0.00
2013-7-23,81.8,71.6,65.2,68.3,64.1,60.3,90,78,60,30.03,29.92,11,2,12,0.00
2013-7-24,82.0,70.4,63.4,67.8,63.3,60.3,92,79,59,29.98,29.89,12,2,13,0.00
2013-7-25,78.8,69.2,63.0,66.9,62.6,59.6,91,80,63,30.02,29.92,9,2,12,0.00
2013-7-26,85.9,70.8,64.3,69.2,63.8,60.8,93,79,57,30.09,29.96,9,2,11,0.00
2013-7-27,75.3,68.5,63.5,67.2,62.6,59.4,91,82,73,30.02,29.88,13,2,15,0.00
2013-7-28,75.6,66.3,62.6,66.6,61.6,59.5,93,85,71,29.94,29.88,11,2,13,0.00
2013-7-29,74.8,68.0,63.2,63.2,60.1,58.1,89,77,65,30.05,29.92,11,2,12,0.00
2013-7-30,77.3,68.1,61.7,65.4,60.3,58.3,90,77,59,30.14,30.03,15,2,15,0.00
2013-7-31,73.8,66.6,61.7,63.3,60.0,58.1,90,80,67,30.12,30.00,13,2,13,0.00
2013-8-1,75.5,67.0,61.7,63.6,60.2,58.0,89,80,64,30.04,29.91,12,2,12,0.00
2013-8-2,76.7,68.0,62.2,64.5,61.4,59.2,91,80,63,29.98,29.91,14,2,14,0.00
2013-8-3,76.4,68.8,63.6,65.7,62.0,59.9,90,80,68,30.01,29.93,12,2,12,0.00
2013-8-4,78.4,68.4,62.6,65.6,61.9,59.1,89,80,64,30.03,29.92,11,2,12,0.00
2013-8-5,78.5,66.9,60.2,65.0,60.8,58.1,95,82,58,30.02,29.92,11,2,13,0.00
2013-8-6,76.0,67.5,61.5,63.1,60.5,58.5,92,79,61,30.05,29.97,12,2,13,0.00
2013-8-7,75.0,66.9,61.0,63.6,60.3,58.2,92,80,63,30.10,29.98,11,2,12,0.00
2013-8-8,76.5,67.0,59.0,63.8,60.7,56.9,95,81,63,30.02,29.91,12,2,13,0.00
2013-8-9,74.3,66.2,60.2,63.3,60.3,58.1,94,82,68,29.98,29.92,11,2,13,0.00
2013-8-10,74.2,66.8,61.2,63.1,60.4,58.8,93,81,65,30.05,29.96,11,2,12,0.00
2013-8-11,78.3,68.3,61.2,64.0,61.1,58.9,93,79,55,30.01,29.89,13,2,13,0.00
2013-8-12,75.7,68.2,62.1,65.3,61.9,58.9,91,81,67,29.99,29.89,11,2,12,0.00
2013-8-13,77.5,68.3,62.5,66.5,62.6,60.1,93,83,67,29.99,29.87,10,2,11,0.00
2013-8-14,79.3,67.8,63.1,67.7,63.2,60.7,93,86,69,29.94,29.84,11,2,13,0.00
2013-8-15,76.7,69.1,64.3,67.6,63.9,61.8,93,84,70,29.96,29.89,12,2,13,0.00
2013-8-16,81.8,70.8,63.5,69.4,64.5,62.3,98,82,56,29.97,29.89,11,2,11,0.00
2013-8-17,85.8,70.7,62.2,67.4,63.6,61.0,97,80,49,29.96,29.81,11,2,11,0.00
2013-8-18,76.8,67.9,63.2,66.2,63.1,61.2,94,85,69,29.92,29.84,12,2,13,0.00
2013-8-19,75.8,68.6,65.0,66.8,63.7,61.9,90,85,71,29.97,29.86,13,1,13,0.00
2013-8-20,82.5,68.8,64.0,68.1,62.9,60.6,92,82,61,29.95,29.84,9,1,11,0.00
2013-8-21,85.4,72.3,62.2,68.2,61.6,56.8,92,71,46,29.93,29.83,11,2,11,0.00
2013-8-22,88.3,75.7,62.8,66.9,60.5,53.3,89,62,31,29.93,29.80,10,2,11,0.00
2013-8-23,87.5,72.4,61.9,65.6,61.4,56.1,93,71,37,29.88,29.73,10,2,11,0.00
2013-8-24,77.8,67.6,60.7,66.7,62.3,58.9,95,84,60,29.90,29.77,11,1,12,0.00
2013-8-25,83.0,68.4,60.8,65.9,62.2,59.6,96,82,54,29.92,29.85,10,2,11,0.00
2013-8-26,89.2,76.2,64.6,68.2,61.5,52.8,91,64,38,29.92,29.80,9,2,10,0.00
2013-8-27,89.0,74.7,66.9,67.1,62.5,55.8,88,68,33,29.85,29.76,10,2,10,0.00
2013-8-28,92.0,77.5,66.8,68.2,61.1,48.1,86,60,27,29.89,29.78,10,1,11,0.00
2013-8-29,95.8,79.7,67.2,68.3,62.9,52.1,87,60,30,29.93,29.85,8,1,10,0.00
2013-8-30,92.1,80.8,72.4,73.1,67.3,62.2,78,65,49,29.97,29.89,11,2,13,0.00
2013-8-31,91.5,80.4,73.8,75.2,69.7,62.2,84,71,55,29.97,29.86,12,2,15,0.00
2013-9-1,90.0,78.6,71.4,74.7,69.2,64.2,87,74,58,29.93,29.84,13,2,14,0.00
2013-9-2,89.8,76.5,68.0,73.4,68.8,65.5,94,79,55,29.93,29.79,10,2,10,0.00
2013-9-3,93.8,79.3,70.3,73.1,68.4,66.0,89,71,47,29.90,29.80,12,2,12,0.00
2013-9-4,95.8,80.5,69.9,71.9,65.9,60.6,87,64,38,29.90,29.81,11,2,12,0.00
2013-9-5,95.5,79.6,68.8,70.1,64.8,58.6,85,63,34,29.88,29.80,9,1,11,0.00
2013-9-6,95.4,79.6,68.6,70.5,64.8,54.8,88,64,28,29.86,29.77,9,2,10,0.00
2013-9-7,94.9,78.3,67.7,71.0,65.2,57.3,89,68,34,29.86,29.77,10,2,11,0.00
2013-9-8,83.8,73.0,65.5,69.1,63.8,58.7,92,74,55,29.86,29.74,10,2,11,0.00
2013-9-9,80.9,69.7,64.0,65.9,61.8,58.8,91,77,59,29.83,29.74,11,2,13,0.00
2013-9-10,76.6,68.0,61.8,64.2,60.9,59.1,92,79,63,29.95,29.82,12,2,12,0.00
2013-9-11,77.5,68.0,62.0,65.1,61.6,59.2,92,81,63,30.02,29.92,11,2,15,0.00
2013-9-12,84.3,71.4,60.8,68.3,62.6,58.2,93,75,49,29.95,29.81,11,2,13,0.00
2013-9-13,80.2,70.1,61.2,67.1,63.2,58.9,94,80,54,29.84,29.66,9,2,10,0.00
2013-9-14,84.4,70.9,62.3,68.6,64.0,60.4,97,80,50,29.74,29.62,12,1,12,0.00
2013-9-15,88.7,72.8,63.6,71.3,64.6,60.8,97,78,49,29.78,29.70,9,1,12,0.00
2013-9-16,88.3,73.6,62.9,69.0,63.5,57.6,94,74,38,29.83,29.72,11,1,12,0.00
2013-9-17,76.7,67.1,62.5,66.1,62.7,60.1,96,87,67,29.84,29.74,10,2,11,0.00
2013-9-18,76.6,69.8,63.8,64.3,62.0,59.9,93,77,63,29.82,29.75,12,2,13,0.00
2013-9-19,78.6,67.9,61.8,66.9,62.8,59.3,95,85,64,29.84,29.77,11,2,12,0.00
2013-9-20,71.3,67.7,66.4,65.3,62.9,60.5,88,85,79,29.90,29.82,9,2,9,0.00
2013-9-21,77.4,68.4,63.5,63.3,60.5,58.7,90,76,61,29.93,29.81,11,2,12,0.00
2013-9-22,76.5,67.3,58.9,63.0,59.2,53.3,93,77,48,29.86,29.79,13,2,14,0.00
2013-9-23,92.4,72.8,56.4,62.0,55.1,47.1,88,60,24,29.90,29.80,10,1,11,0.00
2013-9-24,83.3,71.7,60.9,62.8,56.3,44.1,86,63,27,29.93,29.83,14,2,14,0.00
2013-9-25,77.0,68.2,63.4,64.6,60.8,54.1,90,78,63,29.87,29.72,12,2,13,0.00
2013-9-26,75.0,66.8,60.0,59.9,55.4,46.7,86,68,42,29.89,29.73,16,2,16,0.00
2013-9-27,85.8,68.4,53.3,54.3,47.0,37.3,84,52,20,29.99,29.89,13,2,13,0.00
2013-9-28,90.6,70.6,52.8,50.1,43.3,29.5,71,43,13,30.04,29.94,13,2,14,0.00
2013-9-29,84.2,69.0,54.2,59.6,50.2,42.6,71,53,26,30.08,29.96,11,1,12,0.00
2013-9-30,79.6,68.2,58.1,64.6,59.8,53.1,97,76,48,30.00,29.85,10,1,10,0.00
2013-10-1,80.4,67.5,57.7,65.3,60.9,54.4,93,80,61,29.95,29.87,10,2,10,0.00
2013-10-2,79.0,67.8,63.5,63.1,60.5,58.4,86,78,57,29.99,29.88,9,2,11,0.00
2013-10-3,75.5,67.0,62.4,63.1,61.1,59.3,91,82,65,29.94,29.83,12,2,14,0.00
2013-10-4,93.8,74.0,60.5,62.1,44.5,11.0,92,51,6,30.03,29.89,23,4,23,0.00
2013-10-5,97.5,80.3,62.9,42.5,29.0,17.8,47,17,6,30.11,30.01,25,6,28,0.00
2013-10-6,95.5,72.9,53.3,50.0,37.2,18.6,68,35,7,30.09,29.95,10,2,11,0.00
2013-10-7,82.8,68.2,57.1,61.9,53.2,41.7,89,61,32,29.99,29.89,10,1,11,0.00
2013-10-8,73.7,64.6,57.5,61.2,57.6,54.1,91,79,63,29.94,29.83,12,2,14,0.00
2013-10-9,67.4,60.6,54.0,55.9,52.9,48.1,89,76,60,29.84,29.73,20,3,20,0.05
2013-10-10,73.3,59.7,49.3,55.9,51.9,47.9,95,77,49,30.03,29.83,11,1,12,0.02
2013-10-11,75.8,61.9,50.7,60.2,54.3,48.1,92,78,51,30.07,29.95,12,1,12,0.03
2013-10-12,72.8,62.6,53.6,62.0,57.2,51.1,94,83,66,30.00,29.90,11,2,13,0.00
2013-10-13,72.9,63.3,57.7,59.4,57.1,53.8,93,81,60,30.04,29.95,10,1,11,0.00
2013-10-14,90.9,66.6,52.7,58.5,53.9,45.3,95,69,23,30.04,29.89,9,1,11,0.00
2013-10-15,93.8,69.3,53.5,57.5,49.9,31.5,92,58,13,29.97,29.87,10,1,12,0.00
2013-10-16,91.0,72.5,55.0,52.6,38.5,27.3,85,35,13,30.07,29.97,10,2,12,0.00
2013-10-17,84.7,66.2,52.2,62.9,49.1,39.9,79,56,31,30.05,29.93,10,1,10,0.00
2013-10-18,81.6,66.2,51.9,62.2,53.1,45.8,87,65,34,30.03,29.92,8,1,9,0.00
2013-10-19,79.4,66.0,54.1,63.9,56.5,47.5,97,74,38,30.03,29.96,11,1,11,0.00
2013-10-20,76.0,64.0,58.1,63.0,59.4,55.6,96,86,63,30.01,29.90,9,1,9,0.00
2013-10-21,73.5,63.9,58.5,61.4,58.2,55.6,95,83,62,30.00,29.91,7,1,9,0.00
2013-10-22,76.8,63.0,54.4,64.6,58.1,52.4,96,85,63,30.03,29.90,8,1,9,0.00
2013-10-23,68.3,62.7,58.3,59.1,57.4,55.6,93,83,72,29.99,29.92,10,1,11,0.00
2013-10-24,71.0,63.4,57.9,60.1,56.5,54.0,87,78,66,30.07,29.97,12,1,12,0.00
2013-10-25,73.2,63.2,56.1,61.2,57.7,52.4,91,83,64,30.15,30.01,9,1,9,0.00
2013-10-26,74.0,62.5,55.3,64.0,58.4,52.7,96,87,70,30.11,29.98,8,1,8,0.00
2013-10-27,69.9,62.9,57.9,63.0,59.4,55.4,96,89,76,30.00,29.83,12,2,12,0.00
2013-10-28,66.4,61.3,56.6,57.5,53.8,50.6,91,77,61,29.96,29.84,13,3,16,0.00
2013-10-29,66.8,59.3,52.2,57.8,52.3,49.9,94,78,59,30.03,29.95,10,2,13,0.04
2013-10-30,73.8,59.7,48.7,56.9,50.9,46.1,92,75,45,30.10,29.99,9,1,10,0.00
2013-10-31,82.6,62.8,48.2,55.1,48.2,41.3,91,63,25,30.12,29.98,9,1,10,0.00
2013-11-1,85.7,66.1,48.5,55.2,46.7,40.0,85,55,22,30.12,29.93,8,1,10,0.00
2013-11-2,81.1,64.4,51.7,60.4,50.6,38.8,91,65,25,30.01,29.89,11,1,11,0.00
2013-11-3,69.0,62.7,58.7,58.7,56.5,54.0,92,81,66,29.95,29.84,10,1,11,0.00
2013-11-4,68.8,61.9,55.0,57.2,53.7,50.8,86,75,65,29.97,29.82,8,1,11,0.00
2013-11-5,80.5,62.5,48.3,55.7,42.8,27.8,92,56,18,30.15,29.96,7,1,7,0.00
2013-11-6,83.0,64.2,47.1,45.0,37.0,26.2,68,40,14,30.22,30.10,7,1,8,0.00
2013-11-7,85.5,66.0,49.9,44.6,37.7,22.4,68,40,11,30.14,30.00,7,1,8,0.00
2013-11-8,75.2,62.2,48.4,59.9,51.2,40.2,93,69,39,30.06,29.95,8,1,8,0.00
2013-11-9,76.1,62.0,55.3,58.6,54.4,41.8,95,80,30,30.09,30.01,8,1,9,0.00
2013-11-10,84.8,62.4,50.4,57.4,50.7,37.7,94,71,21,30.15,30.04,11,1,12,0.01
2013-11-11,79.3,61.4,47.3,60.2,50.0,43.3,88,68,42,30.15,30.03,10,1,10,0.00
2013-11-12,76.1,62.1,51.9,59.6,51.4,48.2,90,71,43,30.19,30.07,5,0,6,0.00
2013-11-13,90.8,68.3,50.3,56.4,48.8,39.6,87,56,19,30.07,29.88,7,0,7,0.00
2013-11-14,88.3,67.6,52.2,59.5,50.5,40.3,90,59,20,29.94,29.79,11,1,11,0.00
2013-11-15,71.3,63.3,59.4,59.5,57.5,54.8,92,82,66,29.79,29.69,9,2,11,0.00
2013-11-16,69.1,61.1,55.5,56.6,52.9,50.3,91,75,54,29.96,29.77,9,1,11,0.01
2013-11-17,70.3,60.8,53.6,57.1,53.1,49.3,88,77,58,30.12,29.96,8,1,9,0.00
2013-11-18,69.0,59.7,51.0,58.1,53.7,48.1,92,81,63,30.18,30.06,9,1,11,0.00
2013-11-19,66.6,61.0,57.7,56.6,54.6,52.9,87,80,63,30.11,29.97,10,1,10,0.00
2013-11-20,67.6,60.9,55.7,58.7,55.5,52.3,93,83,67,30.00,29.91,8,1,9,0.01
2013-11-21,65.4,60.3,55.8,60.7,57.0,52.5,97,89,76,29.91,29.85,13,2,13,0.02
2013-11-22,66.8,57.7,53.1,53.1,46.7,40.6,91,69,47,29.98,29.85,14,3,15,0.02
2013-11-23,72.0,58.1,49.7,50.2,46.0,41.7,84,66,38,30.11,29.97,11,1,11,0.03
2013-11-24,70.9,56.9,46.1,54.2,46.1,41.8,86,69,42,30.22,30.11,9,1,11,0.01
2013-11-25,72.7,57.9,45.9,52.4,45.7,42.0,87,67,37,30.27,30.17,11,1,11,0.01
2013-11-26,79.0,60.1,46.1,51.9,46.4,39.8,88,64,27,30.22,30.06,11,1,11,0.00
2013-11-27,78.4,60.3,49.2,49.2,45.8,42.3,83,62,34,30.06,29.90,10,1,11,0.00
2013-11-28,72.7,59.2,48.0,56.6,49.5,41.8,86,72,44,30.08,29.91,9,1,10,0.00
2013-11-29,66.7,59.0,53.3,57.2,53.2,49.8,93,82,64,30.20,30.07,9,1,10,0.02
2013-11-30,76.2,61.3,51.5,55.0,50.6,48.3,93,71,38,30.21,30.08,8,1,8,0.01
2013-12-1,82.5,63.6,48.9,52.3,45.5,38.9,90,58,22,30.23,30.09,6,1,7,0.02
2013-12-2,73.2,59.0,47.3,50.6,45.1,39.6,83,63,33,30.13,29.93,5,0,7,0.01
2013-12-3,65.7,57.3,48.5,56.0,50.0,42.1,85,77,66,29.94,29.78,11,2,13,0.01
2013-12-4,66.7,54.1,46.7,46.9,40.3,32.4,82,61,41,29.99,29.81,11,2,13,0.00
2013-12-5,64.7,51.5,43.4,44.0,39.5,37.1,80,65,43,30.13,29.98,10,1,10,0.00
2013-12-6,61.1,51.1,43.4,46.0,41.5,38.2,84,71,50,30.21,30.12,12,2,12,0.00
2013-12-7,57.7,49.2,42.3,52.3,42.6,35.0,92,78,59,30.15,30.03,30,1,35,0.01
2013-12-8,57.4,46.1,35.0,43.9,37.4,31.5,91,73,51,30.24,30.12,8,1,8,0.02
2013-12-9,67.4,50.9,37.9,38.3,18.3,-0.8,84,38,8,30.33,30.22,22,4,25,0.00
2013-12-10,70.0,54.0,41.4,36.3,20.2,5.6,56,29,12,30.29,30.10,12,2,13,0.00
2013-12-11,77.8,53.2,37.1,46.6,33.9,22.8,81,52,14,30.19,30.12,9,1,10,0.00
2013-12-12,65.8,53.9,42.5,52.7,46.0,38.7,90,76,44,30.25,30.15,9,1,9,0.00
2013-12-13,68.3,53.4,43.3,51.8,45.9,40.6,92,78,40,30.26,30.15,7,1,8,0.00
2013-12-14,76.1,57.2,40.7,46.9,38.7,29.3,93,58,19,30.31,30.20,8,1,10,0.00
2013-12-15,81.3,61.9,42.9,37.8,33.2,23.2,71,40,12,30.26,30.08,9,1,10,0.00
2013-12-16,82.5,64.0,51.3,50.1,41.3,34.0,64,45,21,30.14,30.06,10,1,11,0.00
2013-12-17,78.5,62.2,48.3,56.6,50.2,43.2,85,67,33,30.15,30.02,8,0,8,0.00
2013-12-18,70.3,60.0,54.1,58.6,54.3,50.1,90,82,52,30.03,29.88,10,1,12,0.00
2013-12-19,58.9,54.2,47.2,52.3,48.6,44.4,90,82,73,29.89,29.74,7,1,8,0.05
2013-12-20,63.7,52.0,41.5,53.5,46.9,39.9,96,84,63,29.97,29.80,8,1,10,0.01
2013-12-21,64.5,52.6,44.4,53.3,47.4,42.2,93,83,63,30.11,29.95,7,1,8,0.02
2013-12-22,72.8,54.7,42.7,53.5,47.8,40.5,93,79,46,30.28,30.11,8,1,10,0.00
2013-12-23,78.2,59.3,44.5,50.4,43.1,37.3,92,61,24,30.34,30.18,8,1,8,0.00
2013-12-24,77.3,59.3,45.2,52.5,45.0,38.9,83,62,31,30.22,30.10,6,1,7,0.00
2013-12-25,85.5,68.1,49.2,45.4,28.5,15.1,79,28,9,30.22,30.11,19,4,20,0.00
2013-12-26,86.3,63.7,46.9,31.8,24.7,11.6,51,28,7,30.19,30.07,14,2,17,0.00
2013-12-27,83.7,60.0,43.7,40.8,32.9,15.4,63,41,9,30.18,30.05,8,1,9,0.00
2013-12-28,72.7,58.2,49.0,53.7,44.2,34.1,89,63,30,30.06,29.95,9,1,10,0.00
2013-12-29,83.6,59.6,46.0,51.7,38.6,17.5,95,58,11,30.17,30.03,8,1,8,0.01
2013-12-30,78.8,55.8,40.0,45.3,35.6,22.7,78,52,16,30.29,30.16,8,1,8,0.00
2013-12-31,69.8,53.4,39.5,54.2,42.7,34.4,88,70,30,30.24,30.11,8,1,9,0.00
2014-1-1,70.8,53.7,41.9,55.3,46.4,39.1,92,78,38,30.18,30.06,8,0,9,0.00
2014-1-2,76.2,56.4,42.6,54.7,47.6,39.8,92,75,31,30.13,30.01,9,1,9,0.00